Tracking 30990 objects as of 8-Jul-2025
HD Live streaming from Space Station
objects crossing your sky now

N-2 R/B(2)

Track N-2 R/B(2) now!
10-day predictions


NORAD ID: 12787
Int'l Code: 1981-012C
Perigee: 213.4 km
Apogee: 17,751.7 km
Inclination: 28.0 °
Period: 315.6 minutes
Semi major axis: 15353 km
RCS: 2.6865 m2 (large)
Launch date: February 11, 1981
Source: Japan (JPN)
Launch site: TANEGASHIMA SPACE CENTER (TNSTA)

Note: This is a ROCKET BODY
Your satellite tracking list
Your tracking list is empty




NASA's NSSDC Master Catalog

Two Line Element Set (TLE):
1 12787U 81012C   25189.08313206  .00035595  00000-0  11596-2 0  9996
2 12787  28.0450 298.5673 5711473 358.8939   0.2130  4.56339899528118
Source of the keplerian elements: AFSPC